Weather History for KOXI - November, 2012

Change the Weather History Date:

Friday, November 23, 2012

  Actual Average (KVPZ) Record (KVPZ)
Temperature  
Mean Temperature 41 °F 37 °F  
Max Temperature 53 °F 44 °F 65 °F (2003)
Min Temperature 29 °F 30 °F 15 °F (2008)
Degree Days  
Heating Degree Days 24 28  
Month to date heating degree days 519  
Since 1 July heating degree days 1049  
Cooling Degree Days 0 0  
Month to date cooling degree days 0  
Year to date cooling degree days 713  
Moisture  
Dew Point 25 °F    
Average Humidity 71    
Maximum Humidity 91    
Minimum Humidity 55    
Precipitation  
Precipitation 0.00 in 0.10 in 0.78 in (2003)
Month to date precipitation 2.62  
Year to date precipitation 34.62  
Sea Level Pressure  
Sea Level Pressure 30.02 in    
Wind  
Wind Speed 18 mph (West)    
Max Wind Speed 26 mph    
Max Gust Speed 34 mph    
Visibility 10 miles    
Events      
T = Trace of Precipitation, MM = Missing Value Source: NWS Daily Summary

Daily Weather History Graph

Daily Weather History Graph

Search for Another Location

Airport or City:

Trip Planner

Search our weather history database for the weather conditions in past years. The results will help you decide how hot, cold, wet, or windy it might be!

Date:

Astronomy

Nov. 23, 2012 Rise Set
Actual Time 6:44 AM CST 4:21 PM CST
Civil Twilight 6:14 AM CST 4:51 PM CST
Nautical Twilight 5:40 AM CST 5:25 PM CST
Astronomical Twilight 5:07 AM CST 5:58 PM CST
Moon 1:37 PM CST (11/23) 2:00 AM CST (11/23)
Length of Visible Light 10h 36m
Length of Day
9h 36m
Waxing Gibbous, 80% of the Moon is Illuminated
Nov 23
Waxing Gibbous
Nov 28
Full
Dec 6
Last Quarter
Dec 13
New
Dec 19
First Quarter

Hourly Weather History & Observations

Time (CST) Temp. Windchill Dew Point Humidity Pressure Visibility Wind Dir Wind Speed Gust Speed Precip Events Conditions
12:15 AM 53.2 °F - 49.6 °F 88% 29.83 in 10.0 mi WSW 18.4 mph 25.3 mph N/A   Mostly Cloudy
12:35 AM 50.9 °F - 45.5 °F 82% 29.85 in 10.0 mi West 19.6 mph 28.8 mph N/A   Scattered Clouds
12:55 AM 46.9 °F - 41.4 °F 81% 29.86 in 10.0 mi West 21.9 mph 28.8 mph N/A   Clear
1:15 AM 45.1 °F 37.6 °F 39.9 °F 82% 29.87 in 10.0 mi West 18.4 mph 23.0 mph N/A   Clear
1:35 AM 43.5 °F 35.0 °F 38.5 °F 82% 29.88 in 10.0 mi West 20.7 mph 26.5 mph N/A   Clear
1:55 AM 42.3 °F 34.1 °F 36.9 °F 81% 29.89 in 10.0 mi West 17.3 mph 24.2 mph N/A   Clear
2:15 AM 41.4 °F 33.0 °F 36.7 °F 83% 29.90 in 10.0 mi West 17.3 mph 23.0 mph N/A   Clear
2:35 AM 40.1 °F 30.7 °F 35.8 °F 85% 29.90 in 10.0 mi West 19.6 mph 24.2 mph N/A   Clear
3:15 AM 38.3 °F 30.1 °F 33.1 °F 81% 29.91 in 10.0 mi West 13.8 mph 24.2 mph N/A   Clear
3:35 AM 37.6 °F 28.4 °F 33.1 °F 84% 29.90 in 10.0 mi West 16.1 mph 24.2 mph N/A   Clear
3:55 AM 36.7 °F 27.6 °F 32.2 °F 84% 29.91 in 10.0 mi West 15.0 mph 21.9 mph N/A   Clear
4:15 AM 36.1 °F 27.3 °F 32.0 °F 85% 29.91 in 10.0 mi West 13.8 mph 21.9 mph N/A   Clear
4:35 AM 35.8 °F 26.9 °F 32.0 °F 86% 29.91 in 10.0 mi West 13.8 mph - N/A   Clear
4:55 AM 35.2 °F 26.2 °F 32.0 °F 88% 29.91 in 10.0 mi West 13.8 mph - N/A   Clear
5:15 AM 34.7 °F 25.1 °F 32.0 °F 90% 29.90 in 10.0 mi West 15.0 mph - N/A   Clear
5:35 AM 34.5 °F 25.3 °F 32.0 °F 90% 29.90 in 10.0 mi West 13.8 mph - N/A   Clear
5:55 AM 34.5 °F 24.8 °F 32.0 °F 90% 29.91 in 10.0 mi West 15.0 mph 19.6 mph N/A   Clear
6:15 AM 34.3 °F 25.0 °F 32.0 °F 91% 29.91 in 10.0 mi West 13.8 mph 18.4 mph N/A   Scattered Clouds
6:35 AM 34.5 °F 24.5 °F 32.0 °F 90% 29.92 in 10.0 mi West 16.1 mph - N/A   Scattered Clouds
6:55 AM 35.2 °F 24.7 °F 32.0 °F 88% 29.91 in 10.0 mi West 18.4 mph 25.3 mph N/A   Mostly Cloudy
7:15 AM 35.6 °F 25.9 °F 32.0 °F 87% 29.92 in 10.0 mi West 16.1 mph - N/A   Overcast
7:35 AM 35.8 °F 25.1 °F 31.3 °F 84% 29.93 in 10.0 mi West 19.6 mph 28.8 mph N/A   Overcast
8:15 AM 35.2 °F 24.1 °F 25.9 °F 69% 29.94 in 10.0 mi West 20.7 mph 31.1 mph N/A   Overcast
8:35 AM 35.2 °F 24.7 °F 25.7 °F 68% 29.94 in 10.0 mi West 18.4 mph 31.1 mph N/A   Overcast
8:55 AM 35.1 °F 24.1 °F 26.1 °F 70% 29.95 in 10.0 mi West 19.6 mph 25.3 mph N/A   Overcast
9:15 AM 34.7 °F 23.1 °F 27.9 °F 76% 29.96 in 10.0 mi West 21.9 mph 29.9 mph N/A   Overcast
9:35 AM 34.2 °F 21.5 °F 28.0 °F 78% 29.96 in 10.0 mi West 25.3 mph 31.1 mph N/A   Overcast
9:55 AM 34.0 °F 21.8 °F 27.3 °F 77% 29.98 in 10.0 mi WNW 23.0 mph 34.5 mph N/A   Overcast
10:15 AM 33.3 °F 20.6 °F 25.0 °F 72% 29.99 in 10.0 mi West 24.2 mph 33.4 mph N/A   Overcast
10:35 AM 32.0 °F 18.4 °F 23.2 °F 70% 30.00 in 10.0 mi West 26.5 mph 34.5 mph N/A   Overcast
10:55 AM 31.5 °F 18.5 °F 19.9 °F 62% 30.01 in 10.0 mi West 23.0 mph 33.4 mph N/A   Overcast
11:15 AM 31.5 °F 18.8 °F 19.6 °F 62% 30.01 in 10.0 mi West 21.9 mph 28.8 mph N/A   Overcast
11:35 AM 31.6 °F 19.7 °F 19.6 °F 61% 30.01 in 10.0 mi WNW 19.6 mph 31.1 mph N/A   Overcast
12:35 PM 31.1 °F 18.0 °F 18.3 °F 59% 30.03 in 10.0 mi WNW 23.0 mph 29.9 mph N/A   Overcast
12:55 PM 31.6 °F 18.4 °F 18.3 °F 58% 30.03 in 10.0 mi WNW 24.2 mph 31.1 mph N/A   Overcast
1:15 PM 31.6 °F 19.0 °F 18.1 °F 57% 30.04 in 10.0 mi WNW 21.9 mph 27.6 mph N/A   Overcast
1:35 PM 31.6 °F 19.3 °F 17.8 °F 57% 30.04 in 10.0 mi WNW 20.7 mph 26.5 mph N/A   Overcast
2:15 PM 31.8 °F 19.6 °F 17.2 °F 55% 30.06 in 10.0 mi WNW 20.7 mph 26.5 mph N/A   Overcast
2:35 PM 31.8 °F 19.3 °F 17.6 °F 56% 30.07 in 10.0 mi WNW 21.9 mph 27.6 mph N/A   Overcast
3:15 PM 31.5 °F 20.5 °F 18.3 °F 58% 30.09 in 10.0 mi West 16.1 mph 24.2 mph N/A   Overcast
3:35 PM 31.1 °F 18.9 °F 18.3 °F 59% 30.10 in 10.0 mi West 19.6 mph 27.6 mph N/A   Overcast
3:55 PM 31.1 °F 20.1 °F 18.0 °F 58% 30.11 in 10.0 mi West 16.1 mph 24.2 mph N/A   Overcast
4:15 PM 30.7 °F 19.2 °F 18.1 °F 60% 30.11 in 10.0 mi WNW 17.3 mph 24.2 mph N/A   Overcast
4:35 PM 30.4 °F 18.7 °F 17.6 °F 59% 30.12 in 10.0 mi WNW 17.3 mph 24.2 mph N/A   Overcast
4:55 PM 30.2 °F 17.4 °F 17.4 °F 59% 30.13 in 10.0 mi WNW 20.7 mph - N/A   Overcast
5:15 PM 30.0 °F 19.1 °F 17.2 °F 59% 30.14 in 10.0 mi West 15.0 mph 23.0 mph N/A   Overcast
5:55 PM 30.0 °F 18.7 °F 16.7 °F 58% 30.15 in 10.0 mi WNW 16.1 mph 23.0 mph N/A   Overcast
6:15 PM 29.8 °F 18.0 °F 16.9 °F 59% 30.15 in 10.0 mi West 17.3 mph 20.7 mph N/A   Overcast
6:35 PM 29.7 °F 19.1 °F 17.2 °F 60% 30.15 in 10.0 mi WNW 13.8 mph 18.4 mph N/A   Overcast
7:15 PM 29.5 °F 18.8 °F 17.4 °F 61% 30.16 in 10.0 mi West 13.8 mph - N/A   Overcast
7:35 PM 29.3 °F 18.6 °F 17.4 °F 61% 30.16 in 10.0 mi West 13.8 mph 19.6 mph N/A   Overcast
7:55 PM 29.3 °F 18.6 °F 17.4 °F 61% 30.17 in 10.0 mi West 13.8 mph 18.4 mph N/A   Overcast
8:15 PM 29.3 °F 19.6 °F 17.6 °F 62% 30.16 in 10.0 mi West 11.5 mph 19.6 mph N/A   Overcast
8:35 PM 29.3 °F 18.2 °F 17.6 °F 62% 30.16 in 10.0 mi West 15.0 mph - N/A   Overcast
8:55 PM 29.3 °F 18.6 °F 18.0 °F 63% 30.16 in 10.0 mi West 13.8 mph - N/A   Overcast
9:15 PM 29.3 °F 18.6 °F 17.8 °F 62% 30.17 in 10.0 mi West 13.8 mph 20.7 mph N/A   Overcast
9:35 PM 29.3 °F 18.2 °F 17.6 °F 62% 30.16 in 10.0 mi West 15.0 mph - N/A   Overcast
9:55 PM 29.3 °F 18.6 °F 17.6 °F 62% 30.16 in 10.0 mi West 13.8 mph - N/A   Overcast
10:15 PM 29.3 °F 20.8 °F 18.0 °F 63% 30.16 in 10.0 mi West 9.2 mph 17.3 mph N/A   Overcast
10:35 PM 29.3 °F 19.6 °F 18.5 °F 64% 30.16 in 10.0 mi West 11.5 mph 17.3 mph N/A   Overcast
10:55 PM 29.3 °F 19.6 °F 18.7 °F 65% 30.16 in 10.0 mi West 11.5 mph - N/A   Overcast
11:35 PM 29.3 °F 19.6 °F 19.0 °F 66% 30.16 in 10.0 mi West 11.5 mph - N/A   Overcast
11:55 PM 29.1 °F 21.3 °F 19.0 °F 66% 30.16 in 10.0 mi West 8.1 mph - N/A   Overcast